Previsão horária em Juankoski

Hoje, 14 Junho, Segunda-feira

Tempo Temperatura Precipitação Vento Pressão Humidade
00:00 +9°C° 0 mm 2 m/s 748 mmHg 77%
01:00 +8°C° 0 mm 2 m/s 749 mmHg 79%
02:00 +8°C° 0 mm 2 m/s 749 mmHg 80%
03:00 +8°C° 0 mm 2 m/s 749 mmHg 77%
04:00 +9°C° 0 mm 2 m/s 749 mmHg 74%
05:00 +10°C° 0 mm 3 m/s 749 mmHg 72%
06:00 +11°C° 0 mm 3 m/s 750 mmHg 64%
07:00 +13°C° 0 mm 3 m/s 750 mmHg 56%
08:00 +14°C° 0 mm 4 m/s 750 mmHg 48%
09:00 +16°C° 0 mm 3 m/s 750 mmHg 46%
10:00 +17°C° 0 mm 3 m/s 750 mmHg 44%
11:00 +18°C° 0 mm 3 m/s 750 mmHg 42%
12:00 +19°C° 0 mm 3 m/s 749 mmHg 41%
13:00 +20°C° 0 mm 4 m/s 749 mmHg 40%
14:00 +20°C° 0 mm 5 m/s 749 mmHg 39%
15:00 +20°C° 0 mm 5 m/s 748 mmHg 42%
16:00 +20°C° 0 mm 4 m/s 748 mmHg 45%
17:00 +20°C° 0 mm 4 m/s 747 mmHg 48%
18:00 +19°C° 0 mm 4 m/s 747 mmHg 51%
19:00 +19°C° 0 mm 4 m/s 747 mmHg 53%
20:00 +19°C° 0 mm 5 m/s 746 mmHg 55%
21:00 +17°C° 0 mm 5 m/s 746 mmHg 58%
22:00 +16°C° 0 mm 5 m/s 745 mmHg 61%
23:00 +15°C° 0 mm 5 m/s 745 mmHg 63%

Amanhã, 15 Junho, Terça-feira

Tempo Temperatura Precipitação Vento Pressão Humidade
00:00 +15°C° 0 mm 6 m/s 744 mmHg 65%
01:00 +14°C° 0 mm 6 m/s 743 mmHg 66%
02:00 +13°C° 0 mm 6 m/s 742 mmHg 67%
03:00 +13°C° 0.4 mm 6 m/s 741 mmHg 72%
04:00 +11°C° 0.4 mm 7 m/s 741 mmHg 76%
05:00 +11°C° 0.4 mm 7 m/s 740 mmHg 81%
06:00 +11°C° 0.4 mm 7 m/s 739 mmHg 83%
07:00 +11°C° 0.4 mm 8 m/s 738 mmHg 86%
08:00 +11°C° 0.4 mm 9 m/s 738 mmHg 88%
09:00 +11°C° 0.1 mm 9 m/s 738 mmHg 86%
10:00 +10°C° 0.1 mm 9 m/s 739 mmHg 84%
11:00 +10°C° 0.1 mm 9 m/s 740 mmHg 81%
12:00 +11°C° 0.1 mm 9 m/s 741 mmHg 74%
13:00 +13°C° 0.1 mm 8 m/s 742 mmHg 67%
14:00 +15°C° 0.1 mm 7 m/s 742 mmHg 59%
15:00 +15°C° 0.3 mm 6 m/s 743 mmHg 63%
16:00 +14°C° 0.3 mm 6 m/s 743 mmHg 67%
17:00 +14°C° 0.3 mm 6 m/s 744 mmHg 71%
18:00 +14°C° 0.1 mm 5 m/s 744 mmHg 67%
19:00 +14°C° 0.1 mm 5 m/s 744 mmHg 63%
20:00 +14°C° 0.1 mm 5 m/s 744 mmHg 58%
21:00 +13°C° 0 mm 4 m/s 745 mmHg 62%
22:00 +12°C° 0 mm 4 m/s 745 mmHg 66%
23:00 +11°C° 0 mm 4 m/s 746 mmHg 71%

Depois de amanhã, 16 Junho, Quarta-feira

Tempo Temperatura Precipitação Vento Pressão Humidade
00:00 +10°C° 0 mm 4 m/s 746 mmHg 73%
01:00 +10°C° 0 mm 4 m/s 746 mmHg 75%
02:00 +8°C° 0 mm 5 m/s 747 mmHg 78%
03:00 +8°C° 0 mm 5 m/s 747 mmHg 76%
04:00 +9°C° 0 mm 5 m/s 748 mmHg 75%
05:00 +9°C° 0 mm 5 m/s 748 mmHg 74%
06:00 +9°C° 0 mm 5 m/s 749 mmHg 68%
07:00 +10°C° 0 mm 5 m/s 749 mmHg 63%
08:00 +12°C° 0 mm 5 m/s 749 mmHg 57%
09:00 +13°C° 0 mm 5 m/s 750 mmHg 53%
10:00 +14°C° 0 mm 4 m/s 750 mmHg 50%
11:00 +15°C° 0 mm 4 m/s 750 mmHg 46%
12:00 +15°C° 0 mm 4 m/s 751 mmHg 42%
13:00 +16°C° 0 mm 5 m/s 751 mmHg 38%
14:00 +16°C° 0 mm 5 m/s 751 mmHg 34%
15:00 +16°C° 0 mm 5 m/s 751 mmHg 34%
16:00 +16°C° 0 mm 5 m/s 751 mmHg 33%
17:00 +16°C° 0 mm 5 m/s 751 mmHg 32%
18:00 +15°C° 0 mm 4 m/s 752 mmHg 37%
19:00 +14°C° 0 mm 4 m/s 752 mmHg 42%
20:00 +13°C° 0 mm 3 m/s 752 mmHg 46%
21:00 +13°C° 0 mm 2 m/s 753 mmHg 52%
22:00 +10°C° 0 mm 2 m/s 753 mmHg 59%
23:00 +9°C° 0 mm 1 m/s 754 mmHg 65%

17 Junho, Quinta-feira

Tempo Temperatura Precipitação Vento Pressão Humidade
00:00 +8°C° 0 mm 1 m/s 754 mmHg 67%
01:00 +8°C° 0 mm 1 m/s 754 mmHg 69%
02:00 +7°C° 0 mm 1 m/s 755 mmHg 71%
03:00 +8°C° 0 mm 1 m/s 755 mmHg 68%
04:00 +9°C° 0 mm 1 m/s 755 mmHg 66%
05:00 +10°C° 0 mm 1 m/s 756 mmHg 63%
06:00 +12°C° 0 mm 1 m/s 756 mmHg 58%
07:00 +14°C° 0 mm 2 m/s 756 mmHg 52%
08:00 +15°C° 0 mm 2 m/s 756 mmHg 46%
09:00 +17°C° 0 mm 2 m/s 756 mmHg 45%
10:00 +18°C° 0 mm 2 m/s 756 mmHg 43%
11:00 +19°C° 0 mm 2 m/s 756 mmHg 41%
12:00 +20°C° 0 mm 3 m/s 756 mmHg 40%
13:00 +21°C° 0 mm 3 m/s 756 mmHg 39%
14:00 +23°C° 0 mm 4 m/s 756 mmHg 37%
15:00 +23°C° 0 mm 4 m/s 755 mmHg 38%
16:00 +23°C° 0 mm 4 m/s 755 mmHg 39%
17:00 +25°C° 0 mm 4 m/s 755 mmHg 40%
18:00 +23°C° 0 mm 4 m/s 755 mmHg 45%
19:00 +22°C° 0 mm 3 m/s 755 mmHg 49%
20:00 +21°C° 0 mm 3 m/s 755 mmHg 53%
21:00 +19°C° 0 mm 3 m/s 755 mmHg 60%
22:00 +17°C° 0 mm 3 m/s 755 mmHg 66%
23:00 +14°C° 0 mm 3 m/s 755 mmHg 72%

18 Junho, Sexta-feira

Tempo Temperatura Precipitação Vento Pressão Humidade
00:00 +14°C° 0 mm 3 m/s 755 mmHg 74%
01:00 +13°C° 0 mm 3 m/s 755 mmHg 76%
02:00 +13°C° 0 mm 3 m/s 755 mmHg 77%
03:00 +13°C° 0 mm 3 m/s 755 mmHg 74%
04:00 +13°C° 0 mm 3 m/s 755 mmHg 71%
05:00 +13°C° 0 mm 3 m/s 755 mmHg 69%
06:00 +14°C° 0 mm 4 m/s 754 mmHg 64%
07:00 +17°C° 0 mm 4 m/s 754 mmHg 60%
08:00 +18°C° 0 mm 4 m/s 754 mmHg 56%
09:00 +20°C° 0 mm 4 m/s 754 mmHg 52%
10:00 +22°C° 0 mm 5 m/s 754 mmHg 48%
11:00 +25°C° 0 mm 5 m/s 753 mmHg 44%
12:00 +26°C° 0 mm 5 m/s 753 mmHg 43%
13:00 +26°C° 0 mm 5 m/s 753 mmHg 41%
14:00 +27°C° 0 mm 5 m/s 753 mmHg 40%
15:00 +27°C° 0 mm 5 m/s 752 mmHg 40%
16:00 +27°C° 0 mm 5 m/s 752 mmHg 40%
17:00 +27°C° 0 mm 5 m/s 752 mmHg 40%
18:00 +26°C° 0 mm 5 m/s 751 mmHg 43%
19:00 +25°C° 0 mm 5 m/s 751 mmHg 45%
20:00 +23°C° 0 mm 5 m/s 751 mmHg 48%
21:00 +22°C° 0 mm 5 m/s 751 mmHg 53%
22:00 +21°C° 0 mm 5 m/s 751 mmHg 59%
23:00 +20°C° 0 mm 6 m/s 751 mmHg 65%

19 Junho, Sábado

Tempo Temperatura Precipitação Vento Pressão Humidade
00:00 +19°C° 0.1 mm 5 m/s 752 mmHg 71%
01:00 +19°C° 0.1 mm 5 m/s 752 mmHg 77%
02:00 +17°C° 0.1 mm 5 m/s 752 mmHg 82%
03:00 +17°C° 0 mm 4 m/s 753 mmHg 81%
04:00 +15°C° 0 mm 4 m/s 754 mmHg 80%
05:00 +14°C° 0 mm 3 m/s 755 mmHg 78%
06:00 +16°C° 0 mm 3 m/s 755 mmHg 71%
07:00 +17°C° 0 mm 3 m/s 756 mmHg 64%
08:00 +17°C° 0 mm 3 m/s 756 mmHg 57%
09:00 +19°C° 0 mm 2 m/s 756 mmHg 51%
10:00 +20°C° 0 mm 2 m/s 757 mmHg 45%
11:00 +22°C° 0 mm 1 m/s 757 mmHg 40%
12:00 +23°C° 0 mm 1 m/s 757 mmHg 37%
13:00 +24°C° 0 mm 1 m/s 757 mmHg 35%
14:00 +24°C° 0 mm 1 m/s 757 mmHg 33%
15:00 +24°C° 0 mm 1 m/s 757 mmHg 35%
16:00 +23°C° 0 mm 1 m/s 757 mmHg 38%
17:00 +23°C° 0 mm 1 m/s 756 mmHg 40%
18:00 +22°C° 0 mm 1 m/s 756 mmHg 46%
19:00 +20°C° 0 mm 1 m/s 756 mmHg 52%
20:00 +18°C° 0 mm 2 m/s 756 mmHg 57%
21:00 +17°C° 0.3 mm 2 m/s 755 mmHg 67%
22:00 +16°C° 0.3 mm 2 m/s 755 mmHg 77%
23:00 +15°C° 0.3 mm 2 m/s 755 mmHg 87%
Mostrar mais

Necessitamos do seu Consentimento

A Meteoprog e os seus Fornecedores de Serviços podem armazenar e aceder a dados pessoais como cookies, identificadores do dispositivo ou outras tecnologias semelhantes existentes no seu dispositivo e processar estes dados para personalizar conteúdos e anúncios, assim como funcionalidades nas redes sociais e análise de tráfego.

  • Armazenar e/ou aceder a informações no seu dispositivo

    Os cookies, identificadores do dispositivo ou outras informações podem ser armazenados ou acedidos no seu dispositivo, para os fins acima indicados.

  • Anúncios e conteúdos personalizados, medição de anúncios e conteúdos, dados sobre o público-alvo e desenvolvimento de produtos

    Os anúncios e os conteúdos podem ser personalizados com base num perfil. Podem ser adicionados dados adicionais para uma maior personalização dos anúncios e dos conteúdos. A eficácia dos anúncios e dos conteúdos pode ser medida. Podem ser obtidas informações sobre o público que visualizou os anúncios e os conteúdos. Estes dados podem ser usados para desenvolver ou melhorar sistemas, softwares ou a experiência do utilizador.

Ao clicar em "Eu concordo”, permitirá o uso de cookies, identificadores do dispositivo e web beacons mencionados ou outras tecnologias semelhantes. As configurações do navegador do seu dispositivo podem ser alteradas.

Para certos fins, podem ser invocados interesses legítimos ao invés de consentimento. Pode ler mais informação sobre este assunto na nossa Política de Privacidade e Cookies.